GW6872 Weather Reports


Display with metric or nautical units.
time (UTC)temp
F
wind
direction
speed
MPH
gust
MPH
rain 1hr
in
rain 24hr
in
rain mn
in
humidity
%
barometer
mb
20260510101918 56 39 1.0 2.0 0.00 0.00 0.00 66 1010.8
20260510101419 56 25 0.0 2.0 0.00 0.00 0.00 67 1010.8
20260510100918 56 219 1.0 2.0 0.00 0.00 0.00 66 1010.8
20260510100418 56 105 1.0 2.0 0.00 0.00 0.00 66 1010.8
20260510095919 57 94 0.0 2.0 0.00 0.00 0.00 66 1010.8
20260510095419 57 5 0.0 1.0 0.00 0.00 0.00 65 1010.8
20260510094919 56 73 1.0 1.0 0.00 0.00 0.00 66 1010.8
20260510094418 57 342 1.0 1.0 0.00 0.00 0.00 65 1010.8
20260510093918 57 85 0.0 1.0 0.00 0.00 0.00 64 1010.8
20260510093419 57 237 0.0 1.0 0.00 0.00 0.00 64 1010.8
20260510092918 57 29 0.0 1.0 0.00 0.00 0.00 64 1010.8
20260510092418 56 198 0.0 1.0 0.00 0.00 0.00 64 1011.2
20260510091920 56 343 1.0 2.0 0.00 0.00 0.00 65 1011.2
20260510091419 56 191 1.0 3.0 0.00 0.00 0.00 64 1011.2
20260510090919 56 55 1.0 6.0 0.00 0.00 0.00 65 1011.2
20260510090418 56 16 0.0 1.0 0.00 0.00 0.00 66 1010.8
20260510085918 56 340 0.0 2.0 0.00 0.00 0.00 67 1011.2
20260510085419 56 184 3.0 5.0 0.00 0.00 0.00 66 1011.2
20260510084919 56 22 0.0 2.0 0.00 0.00 0.00 67 1011.2
20260510084418 55 309 0.0 2.0 0.00 0.00 0.00 67 1011.2
20260510083919 55 11 1.0 2.0 0.00 0.00 0.00 68 1011.2
20260510083418 55 187 0.0 1.0 0.00 0.00 0.00 68 1011.5
20260510082918 55 358 0.0 2.0 0.00 0.00 0.00 69 1011.5
20260510082419 55 75 1.0 1.0 0.00 0.00 0.00 69 1011.2
20260510081918 55 110 0.0 2.0 0.00 0.00 0.00 69 1011.5
20260510081419 55 65 0.0 1.0 0.00 0.00 0.00 70 1011.2
20260510080918 55 181 0.0 2.0 0.00 0.00 0.00 70 1011.2
20260510080419 54 39 1.0 1.0 0.00 0.00 0.00 71 1011.2
20260510075918 54 104 0.0 1.0 0.00 0.00 0.00 72 1011.2
20260510075418 54 107 1.0 2.0 0.00 0.00 0.00 72 1011.2
20260510074919 54 274 2.0 2.0 0.00 0.00 0.00 73 1011.2
20260510074418 53 110 0.0 2.0 0.00 0.00 0.00 73 1011.5
20260510073919 53 101 1.0 1.0 0.00 0.00 0.00 74 1011.2
20260510073419 53 131 1.0 1.0 0.00 0.00 0.00 74 1011.5
20260510072918 53 341 1.0 1.0 0.00 0.00 0.00 74 1011.5
20260510072419 53 244 0.0 2.0 0.00 0.00 0.00 74 1011.5
20260510071918 53 345 1.0 2.0 0.00 0.00 0.00 75 1011.2
20260510071419 53 186 0.0 2.0 0.00 0.00 0.00 75 1011.2
20260510070918 53 26 1.0 2.0 0.00 0.00 0.00 75 1011.5
20260510070419 53 149 0.0 2.0 0.00 0.00 0.00 76 1011.5
20260510065918 53 287 1.0 2.0 0.00 0.00 0.00 76 1011.5
20260510065420 52 76 0.0 1.0 0.00 0.00 0.00 76 1011.5
20260510064918 52 216 0.0 1.0 0.00 0.00 0.00 77 1011.5
20260510064418 52 174 0.0 1.0 0.00 0.00 0.00 77 1011.5
20260510063918 52 345 0.0 1.0 0.00 0.00 0.00 77 1011.5
20260510063418 52 186 0.0 1.0 0.00 0.00 0.00 78 1011.5
20260510062918 52 286 0.0 2.0 0.00 0.00 0.00 77 1011.5
20260510062418 52 165 0.0 1.0 0.00 0.00 0.00 77 1011.5
20260510061918 52 286 0.0 1.0 0.00 0.00 0.00 77 1011.2
20260510061418 52 252 0.0 1.0 0.00 0.00 0.00 78 1011.2
20260510060918 52 207 0.0 2.0 0.00 0.00 0.00 77 1011.2
20260510060420 52 210 0.0 1.0 0.00 0.00 0.00 78 1011.2
20260510055918 51 99 0.0 1.0 0.00 0.00 0.00 78 1011.2
20260510055419 51 349 1.0 1.0 0.00 0.00 0.00 79 1011.2
20260510054918 51 53 0.0 2.0 0.00 0.00 0.00 79 1011.2
20260510054418 51 101 0.0 3.0 0.00 0.00 0.00 79 1010.8
20260510053919 51 275 0.0 2.0 0.00 0.00 0.00 79 1011.2
20260510053418 51 11 0.0 2.0 0.00 0.00 0.00 80 1011.2
20260510052918 51 256 1.0 1.0 0.00 0.00 0.00 80 1011.2
20260510052418 51 333 0.0 1.0 0.00 0.00 0.00 80 1010.8
20260510051919 51 82 0.0 1.0 0.00 0.00 0.00 80 1010.8
20260510051418 51 61 0.0 3.0 0.00 0.00 0.00 81 1011.2
20260510050918 51 253 0.0 1.0 0.00 0.00 0.00 81 1010.8
20260510050418 51 266 0.0 0.0 0.00 0.00 0.00 81 1011.2
20260510045918 51 59 1.0 1.0 0.00 0.00 0.00 82 1010.8
20260510045418 51 230 0.0 1.0 0.00 0.00 0.00 82 1011.2
20260510044919 51 346 0.0 1.0 0.00 0.00 0.00 82 1011.2
20260510044418 51 44 0.0 1.0 0.00 0.00 0.00 82 1011.2
20260510043919 51 348 0.0 1.0 0.00 0.00 0.00 82 1011.2
20260510043418 51 153 0.0 1.0 0.00 0.00 0.00 82 1011.2
20260510042919 51 112 0.0 1.0 0.00 0.00 0.00 82 1011.2
20260510042418 51 225 0.0 1.0 0.00 0.00 0.00 82 1011.2
20260510041918 51 215 0.0 1.0 0.00 0.00 0.00 82 1011.2
20260510041420 51 309 0.0 1.0 0.00 0.00 0.00 82 1011.2
20260510040918 51 193 1.0 2.0 0.00 0.00 0.00 82 1011.2
20260510040418 51 226 0.0 0.0 0.00 0.00 0.00 82 1011.2
20260510035920 51 224 0.0 2.0 0.00 0.00 0.00 82 1011.2
20260510035418 51 322 0.0 0.0 0.00 0.00 0.00 82 1011.2
20260510034919 51 211 0.0 1.0 0.00 0.00 0.00 82 1011.5
20260510034419 51 100 1.0 1.0 0.00 0.00 0.00 82 1011.2
20260510033918 51 349 0.0 1.0 0.00 0.00 0.00 82 1011.5
20260510033418 51 134 0.0 1.0 0.00 0.00 0.00 82 1011.5
20260510032918 51 241 0.0 2.0 0.00 0.00 0.00 82 1011.5
20260510032420 51 166 0.0 1.0 0.00 0.00 0.00 82 1011.5
20260510031921 51 343 0.0 1.0 0.00 0.00 0.00 82 1011.5
20260510031418 51 1 0.0 1.0 0.00 0.00 0.00 82 1011.5
20260510030919 51 96 1.0 1.0 0.00 0.00 0.00 81 1011.5
20260510030419 51 20 0.0 0.0 0.00 0.00 0.00 81 1011.5
20260510025918 51 279 0.0 1.0 0.00 0.00 0.00 81 1011.9
20260510025418 51 3 0.0 0.0 0.00 0.00 0.00 80 1011.5
20260510024919 51 184 0.0 0.0 0.00 0.00 0.00 80 1011.9
20260510024420 51 237 0.0 0.0 0.00 0.00 0.00 79 1011.5
20260510023918 51 120 0.0 1.0 0.00 0.00 0.00 79 1011.9
20260510023418 51 7 0.0 1.0 0.00 0.00 0.00 79 1011.5
20260510022920 51 262 0.0 1.0 0.00 0.00 0.00 78 1011.5
20260510022420 52 244 0.0 0.0 0.00 0.00 0.00 77 1011.5
20260510021918 52 258 0.0 1.0 0.00 0.00 0.00 78 1011.5
20260510021418 52 20 0.0 3.0 0.00 0.00 0.00 77 1011.5
20260510020918 52 273 0.0 1.0 0.00 0.00 0.00 76 1011.5
20260510020419 52 136 0.0 0.0 0.00 0.00 0.00 77 1011.5
20260510015918 52 249 0.0 0.0 0.00 0.00 0.00 77 1011.5
20260510015418 52 350 0.0 0.0 0.00 0.00 0.00 77 1011.5
20260510014918 52 200 1.0 1.0 0.00 0.00 0.00 77 1011.5
20260510014418 53 228 1.0 3.0 0.00 0.00 0.00 76 1011.5
20260510013918 53 66 1.0 1.0 0.00 0.00 0.00 76 1011.5
20260510013419 53 355 0.0 1.0 0.00 0.00 0.00 76 1011.5
20260510012919 53 267 0.0 1.0 0.00 0.00 0.00 75 1011.9
20260510012418 53 311 0.0 1.0 0.00 0.00 0.00 75 1011.5
20260510011918 53 201 0.0 1.0 0.00 0.00 0.00 74 1011.9
20260510011419 53 181 0.0 2.0 0.00 0.00 0.00 73 1011.5
20260510010918 53 125 0.0 2.0 0.00 0.00 0.00 73 1011.9
20260510010418 53 333 0.0 1.0 0.00 0.00 0.00 72 1011.9
20260510005918 53 215 0.0 1.0 0.00 0.00 0.00 71 1011.5
20260510005418 54 9 0.0 1.0 0.00 0.00 0.00 70 1011.5
20260510004919 54 60 0.0 1.0 0.00 0.00 0.00 69 1011.5
20260510004419 54 339 2.0 3.0 0.00 0.00 0.00 69 1011.5
20260510003918 54 342 1.0 1.0 0.00 0.00 0.00 68 1011.5
20260510003418 54 276 0.0 1.0 0.00 0.00 0.00 67 1011.2
20260510002919 55 273 0.0 1.0 0.00 0.00 0.00 66 1011.5
20260510002418 55 31 0.0 1.0 0.00 0.00 0.00 65 1011.9
20260510001918 55 38 0.0 1.0 0.00 0.00 0.00 64 1011.5
20260510001419 55 100 1.0 1.0 0.00 0.00 0.00 65 1011.5
20260510000918 55 11 0.0 1.0 0.00 0.00 0.00 65 1011.5
20260510000419 55 13 0.0 1.0 0.00 0.00 0.00 66 1011.5
20260509235918 55 51 0.0 1.0 0.00 0.00 0.00 66 1011.5
20260509235419 55 76 0.0 1.0 0.00 0.00 0.00 66 1011.5
20260509234919 55 143 1.0 2.0 0.00 0.00 0.00 66 1011.5
20260509234419 55 222 0.0 1.0 0.00 0.00 0.00 66 1011.5
20260509233919 55 189 1.0 1.0 0.00 0.00 0.00 67 1011.5
20260509233418 56 351 0.0 2.0 0.00 0.00 0.00 67 1011.5
20260509232918 56 117 0.0 1.0 0.00 0.00 0.00 66 1011.5
20260509232420 56 52 0.0 1.0 0.00 0.00 0.00 66 1011.5
20260509231919 56 173 0.0 1.0 0.00 0.00 0.00 64 1011.5
20260509231418 56 207 0.0 0.0 0.00 0.00 0.00 64 1011.5
20260509230919 56 49 0.0 1.0 0.00 0.00 0.00 64 1011.5
20260509230418 57 354 0.0 2.0 0.00 0.00 0.00 63 1011.5
20260509225918 57 4 0.0 1.0 0.00 0.00 0.00 62 1011.9
20260509225418 57 348 0.0 1.0 0.00 0.00 0.00 61 1011.5
20260509224919 57 129 0.0 2.0 0.00 0.00 0.00 60 1011.9
20260509224418 57 149 1.0 2.0 0.00 0.00 0.00 59 1011.5
20260509223919 57 326 0.0 1.0 0.00 0.00 0.00 59 1011.5
20260509223418 58 278 0.0 2.0 0.00 0.00 0.00 58 1011.5
20260509222918 58 122 1.0 1.0 0.00 0.00 0.00 57 1011.5
20260509222420 58 346 0.0 1.0 0.00 0.00 0.00 57 1011.5
20260509221918 58 30 1.0 2.0 0.00 0.00 0.00 57 1011.5
20260509221418 58 251 0.0 1.0 0.00 0.00 0.00 57 1011.5
20260509220920 58 197 0.0 1.0 0.00 0.00 0.00 56 1011.5
20260509220419 59 266 0.0 0.0 0.00 0.00 0.00 56 1011.5
20260509215918 59 321 0.0 1.0 0.00 0.00 0.00 56 1011.5
20260509215418 59 224 0.0 1.0 0.00 0.00 0.00 56 1011.5
20260509214918 59 230 1.0 1.0 0.00 0.00 0.00 56 1011.9
20260509214419 58 327 0.0 2.0 0.00 0.00 0.00 56 1011.5
20260509213919 58 300 1.0 2.0 0.00 0.00 0.00 55 1011.5
20260509213418 59 328 0.0 1.0 0.00 0.00 0.00 55 1011.5
20260509212919 59 320 0.0 1.0 0.00 0.00 0.00 55 1011.5
20260509212418 59 335 0.0 2.0 0.00 0.00 0.00 54 1011.5
20260509211918 59 328 1.0 1.0 0.00 0.00 0.00 53 1011.5
20260509211419 59 136 0.0 1.0 0.00 0.00 0.00 53 1011.5
20260509210919 60 281 0.0 1.0 0.00 0.00 0.00 52 1011.5
20260509210418 60 230 0.0 0.0 0.00 0.00 0.00 51 1011.2
20260509205922 61 173 0.0 0.0 0.00 0.00 0.00 50 1011.2
20260509205419 61 293 0.0 0.0 0.00 0.00 0.00 49 1011.2
20260509204918 61 53 0.0 1.0 0.00 0.00 0.00 49 1011.2
20260509204419 61 275 0.0 0.0 0.00 0.00 0.00 49 1011.2
20260509203918 61 153 0.0 1.0 0.00 0.00 0.00 48 1011.2
20260509203418 61 261 0.0 0.0 0.00 0.00 0.00 47 1011.2
20260509202919 62 293 1.0 1.0 0.00 0.00 0.00 46 1011.2
20260509202418 62 310 1.0 1.0 0.00 0.00 0.00 46 1011.2
20260509201919 62 235 0.0 0.0 0.00 0.00 0.00 46 1011.2
20260509201418 62 302 1.0 2.0 0.00 0.00 0.00 45 1010.8
20260509200919 62 11 0.0 0.0 0.00 0.00 0.00 45 1011.2
20260509200419 62 288 0.0 1.0 0.00 0.00 0.00 45 1010.8
20260509195920 62 340 0.0 1.0 0.00 0.00 0.00 44 1010.8
20260509195418 61 279 1.0 1.0 0.00 0.00 0.00 44 1011.2
20260509194918 61 319 2.0 3.0 0.00 0.00 0.00 44 1011.2
20260509194418 61 331 1.0 5.0 0.00 0.00 0.00 43 1011.2
20260509193919 63 330 0.0 1.0 0.00 0.00 0.00 42 1011.2
20260509193418 63 336 1.0 1.0 0.00 0.00 0.00 41 1010.8
20260509192921 63 322 1.0 2.0 0.00 0.00 0.00 41 1010.8
20260509192419 63 344 1.0 2.0 0.00 0.00 0.00 40 1010.8
20260509191918 63 322 0.0 2.0 0.00 0.00 0.00 40 1010.5
20260509191418 64 89 0.0 2.0 0.00 0.00 0.00 42 1010.8
20260509190919 63 307 0.0 2.0 0.00 0.00 0.00 41 1010.5
20260509190418 64 14 1.0 3.0 0.00 0.00 0.00 40 1010.5
20260509185920 64 318 0.0 2.0 0.00 0.00 0.00 40 1010.8
20260509185418 65 87 1.0 1.0 0.00 0.00 0.00 39 1010.5
20260509184918 64 331 1.0 2.0 0.00 0.00 0.00 39 1010.5
20260509184418 64 10 0.0 2.0 0.00 0.00 0.00 40 1010.5
20260509183918 65 142 0.0 1.0 0.00 0.00 0.00 40 1010.5
20260509183418 66 290 0.0 1.0 0.00 0.00 0.00 40 1010.5
20260509182918 66 93 0.0 1.0 0.00 0.00 0.00 40 1010.5
20260509182419 65 250 0.0 3.0 0.00 0.00 0.00 40 1010.5
20260509181918 65 44 2.0 6.0 0.00 0.00 0.00 39 1010.5
20260509181418 67 334 3.0 6.0 0.00 0.00 0.00 39 1010.8
20260509180919 68 235 0.0 1.0 0.00 0.00 0.00 37 1010.5
20260509180418 69 338 0.0 3.0 0.00 0.00 0.00 36 1010.5
20260509175918 68 325 1.0 2.0 0.00 0.00 0.00 36 1010.2
20260509175418 69 208 0.0 2.0 0.00 0.00 0.00 36 1010.5
20260509174919 69 329 0.0 2.0 0.00 0.00 0.00 36 1010.2
20260509174420 70 343 1.0 3.0 0.00 0.00 0.00 35 1010.2
20260509173919 71 303 1.0 2.0 0.00 0.00 0.00 34 1010.2
20260509173419 72 317 2.0 3.0 0.00 0.00 0.00 34 1010.2
20260509172921 72 186 0.0 3.0 0.00 0.00 0.00 35 1010.2
20260509172421 73 105 1.0 1.0 0.00 0.00 0.00 35 1010.5
20260509171921 72 10 0.0 2.0 0.00 0.00 0.00 36 1010.5
20260509171423 73 354 0.0 1.0 0.00 0.00 0.00 36 1010.5
20260509170919 72 357 0.0 5.0 0.00 0.00 0.00 37 1010.5
20260509170418 73 292 0.0 1.0 0.00 0.00 0.00 36 1010.5
20260509165919 72 330 0.0 2.0 0.00 0.00 0.00 36 1010.5
20260509165419 72 103 1.0 2.0 0.00 0.00 0.00 36 1010.2
20260509164920 75 313 0.0 7.0 0.00 0.00 0.00 35 1010.5
20260509164030 75 317 1.0 2.0 0.00 0.00 0.00 33 1010.2
20260509163418 74 1 0.0 2.0 0.00 0.00 0.00 35 1010.2
20260509162919 75 334 2.0 6.0 0.00 0.00 0.00 34 1010.2
20260509162419 75 9 3.0 3.0 0.00 0.00 0.00 34 1010.2
20260509161918 73 346 2.0 2.0 0.00 0.00 0.00 35 1010.2
20260509161419 74 304 2.0 6.0 0.00 0.00 0.00 36 1010.5
20260509160920 75 278 0.0 3.0 0.00 0.00 0.00 34 1010.5
20260509160419 75 306 0.0 0.0 0.00 0.00 0.00 36 1010.5
20260509155920 72 223 0.0 1.0 0.00 0.00 0.00 38 1010.5
20260509155419 73 316 2.0 6.0 0.00 0.00 0.00 37 1010.5
20260509154920 75 174 0.0 3.0 0.00 0.00 0.00 36 1010.5
20260509154419 73 343 0.0 3.0 0.00 0.00 0.00 37 1010.8
20260509153920 72 302 2.0 6.0 0.00 0.00 0.00 39 1010.8
20260509153418 73 284 1.0 7.0 0.00 0.00 0.00 38 1010.5
20260509152920 75 306 1.0 3.0 0.00 0.00 0.00 36 1010.5
20260509152420 75 283 2.0 3.0 0.00 0.00 0.00 34 1010.8
20260509151920 74 250 0.0 1.0 0.00 0.00 0.00 35 1010.5
20260509151418 73 106 0.0 5.0 0.00 0.00 0.00 37 1010.8
20260509150453 72 305 2.0 9.0 0.00 0.00 0.00 37 1010.8
20260509145921 72 305 0.0 5.0 0.00 0.00 0.00 37 1010.8
20260509145418 73 125 2.0 7.0 0.00 0.00 0.00 38 1010.5
20260509144919 71 279 1.0 6.0 0.00 0.00 0.00 39 1010.5
20260509144420 71 118 1.0 7.0 0.00 0.00 0.00 39 1010.5
20260509143921 71 134 1.0 5.0 0.00 0.00 0.00 39 1010.5
20260509143419 72 146 2.0 6.0 0.00 0.00 0.00 37 1010.2
20260509142918 73 109 1.0 5.0 0.00 0.00 0.00 36 1010.2
20260509142419 72 333 1.0 6.0 0.00 0.00 0.00 37 1010.2
20260509141920 72 316 1.0 5.0 0.00 0.00 0.00 37 1010.2
20260509141419 73 14 2.0 7.0 0.00 0.00 0.00 36 1010.2
20260509140920 73 79 0.0 3.0 0.00 0.00 0.00 36 1010.2
20260509140418 72 303 1.0 6.0 0.00 0.00 0.00 36 1010.2
20260509135918 73 301 2.0 3.0 0.00 0.00 0.00 36 1010.2
20260509135420 73 314 1.0 2.0 0.00 0.00 0.00 35 1010.2
20260509134920 72 303 3.0 6.0 0.00 0.00 0.00 37 1010.5
20260509134419 72 326 2.0 6.0 0.00 0.00 0.00 37 1010.5
20260509133919 72 198 0.0 3.0 0.00 0.00 0.00 37 1010.2
20260509133419 75 33 3.0 5.0 0.00 0.00 0.00 36 1010.5
20260509132920 75 259 0.0 3.0 0.00 0.00 0.00 34 1010.2
20260509132418 75 329 0.0 1.0 0.00 0.00 0.00 34 1010.5
20260509131918 75 74 1.0 2.0 0.00 0.00 0.00 34 1010.5
20260509131419 74 142 0.0 1.0 0.00 0.00 0.00 35 1010.5
20260509130920 74 97 0.0 1.0 0.00 0.00 0.00 36 1010.2
20260509130420 73 193 0.0 1.0 0.00 0.00 0.00 37 1010.5
20260509125920 72 226 0.0 3.0 0.00 0.00 0.00 39 1010.5
20260509125421 72 23 1.0 1.0 0.00 0.00 0.00 38 1010.5
20260509124919 71 234 1.0 3.0 0.00 0.00 0.00 38 1010.5
20260509124419 70 70 0.0 2.0 0.00 0.00 0.00 40 1010.5
20260509123919 69 331 3.0 5.0 0.00 0.00 0.00 40 1010.8
20260509123419 69 5 1.0 2.0 0.00 0.00 0.00 42 1010.8
20260509122918 68 263 0.0 3.0 0.00 0.00 0.00 43 1010.5
20260509122420 67 227 0.0 0.0 0.00 0.00 0.00 44 1010.8
20260509121919 68 272 1.0 3.0 0.00 0.00 0.00 44 1010.5
20260509121418 68 201 1.0 2.0 0.00 0.00 0.00 44 1010.8
20260509120918 67 26 1.0 1.0 0.00 0.00 0.00 45 1010.8
20260509120421 68 348 0.0 6.0 0.00 0.00 0.00 45 1010.8
20260509115918 68 8 0.0 1.0 0.00 0.00 0.00 45 1011.2
20260509115419 68 316 2.0 5.0 0.00 0.00 0.00 45 1011.2
20260509114918 68 126 0.0 1.0 0.00 0.00 0.00 45 1011.2
20260509114418 68 243 0.0 1.0 0.00 0.00 0.00 45 1011.2
20260509113920 68 213 0.0 1.0 0.00 0.00 0.00 45 1011.5
20260509113419 68 298 1.0 5.0 0.00 0.00 0.00 45 1011.5
20260509112918 67 54 0.0 1.0 0.00 0.00 0.00 45 1011.2
20260509112419 68 300 2.0 3.0 0.00 0.00 0.00 44 1011.5
20260509111920 67 189 0.0 6.0 0.00 0.00 0.00 46 1011.5
20260509111418 67 229 1.0 6.0 0.00 0.00 0.00 46 1011.5
20260509110923 68 263 0.0 2.0 0.00 0.00 0.00 46 1011.5
20260509110420 67 359 1.0 5.0 0.00 0.00 0.00 47 1011.5
20260509105920 67 313 1.0 5.0 0.00 0.00 0.00 48 1011.5
20260509105418 67 291 1.0 1.0 0.00 0.00 0.00 50 1011.9
20260509104918 66 306 1.0 6.0 0.00 0.00 0.00 50 1011.5
20260509104418 67 208 1.0 3.0 0.00 0.00 0.00 50 1011.9
20260509103920 67 120 0.0 2.0 0.00 0.00 0.00 51 1011.5
20260509103419 66 288 0.0 7.0 0.00 0.00 0.00 52 1011.9
20260509102920 66 70 1.0 3.0 0.00 0.00 0.00 53 1011.9
20260509102418 67 351 1.0 1.0 0.00 0.00 0.00 53 1011.9